KI5BDI Weather Reports


time (UTC)temp
F
wind
direction
speed
knots
gust
knots
rain 1hr
in
rain 24hr
in
rain mn
in
humidity
%
barometer
mb
20260509134525 73 144 1.7 3.5 0.00 0.01 0.00 96 1010.0
20260509133525 73 155 0.9 2.6 0.00 0.01 0.00 97 1010.0
20260509132525 73 153 0.9 1.7 0.00 0.01 0.00 97 1010.1
20260509131524 72 139 0.9 3.5 0.00 0.01 0.00 97 1010.1
20260509130525 72 156 0.9 1.7 0.00 0.01 0.00 97 1010.2
20260509125525 72 161 0.0 0.9 0.00 0.01 0.00 97 1010.2
20260509124525 72 173 0.9 2.6 0.00 0.01 0.00 97 1010.0
20260509123526 72 232 0.9 2.6 0.00 0.01 0.00 97 1009.9
20260509122527 72 233 0.9 2.6 0.00 0.01 0.00 97 1009.7
20260509121527 71 231 0.9 1.7 0.00 0.01 0.00 97 1009.8
20260509120526 71 250 0.0 3.5 0.00 0.01 0.00 97 1009.9
20260509115527 71 242 1.7 3.5 0.00 0.01 0.00 97 1009.9
20260509114528 71 230 0.0 0.9 0.00 0.01 0.00 97 1009.8
20260509113526 71 220 0.9 2.6 0.00 0.01 0.00 97 1009.8
20260509112527 71 294 0.0 2.6 0.00 0.01 0.00 97 1009.7
20260509111527 71 0.0 0.0 0.00 0.01 0.00 97 1009.4
20260509110547 71 291 0.9 2.6 0.00 0.01 0.00 97 1009.1
20260509105527 71 231 0.0 1.7 0.00 0.01 0.00 96 1008.2
20260509104527 71 170 1.7 4.3 0.00 0.01 0.00 96 1008.1
20260509103519 71 192 2.6 6.1 0.00 0.01 0.00 96 1007.6
20260509102519 71 167 7.0 13.0 0.00 0.01 0.00 96 1007.4
20260509101519 70 171 4.3 9.6 0.00 0.01 0.00 96 1007.8
20260509100539 70 160 4.3 9.6 0.00 0.01 0.00 96 1007.7
20260509095519 70 155 4.3 9.6 0.00 0.01 0.00 96 1007.8
20260509094519 70 161 2.6 6.1 0.00 0.01 0.00 95 1008.3
20260509093542 70 164 2.6 6.1 0.00 0.01 0.00 95 1008.5
20260509092520 70 175 2.6 5.2 0.00 0.01 0.00 95 1008.5
20260509091520 70 160 1.7 4.3 0.00 0.01 0.00 94 1008.6
20260509090529 70 160 1.7 4.3 0.00 0.01 0.00 94 1008.8
20260509085529 70 168 0.9 1.7 0.00 0.01 0.00 94 1009.1
20260509084530 70 152 0.9 2.6 0.00 0.01 0.00 94 1009.3
20260509083529 70 170 0.0 1.7 0.00 0.01 0.00 94 1009.7
20260509082549 70 0.0 0.0 0.00 0.01 0.00 94 1009.9
20260509081530 70 0.0 0.0 0.00 0.01 0.00 94 1010.0
20260509080529 70 0.0 0.0 0.00 0.01 0.00 93 1010.2
20260509075531 70 0.0 0.0 0.00 0.01 0.00 93 1010.0
20260509074530 70 177 0.0 1.7 0.00 0.01 0.00 93 1009.8
20260509073530 71 173 0.9 3.5 0.00 0.01 0.00 93 1009.7
20260509072530 71 139 0.9 2.6 0.00 0.01 0.00 93 1009.7
20260509071532 71 161 0.9 2.6 0.00 0.01 0.00 92 1009.9
20260509070551 70 144 0.9 1.7 0.00 0.01 0.00 92 1010.0
20260509065552 70 153 0.0 1.7 0.00 0.01 0.00 92 1010.1
20260509064530 71 0.0 0.0 0.00 0.01 0.00 92 1010.3
20260509063551 71 138 0.0 0.9 0.00 0.01 0.00 92 1010.2
20260509062531 71 133 0.0 0.9 0.00 0.01 0.00 92 1010.2
20260509061531 71 0.0 0.0 0.00 0.01 0.00 92 1010.4
20260509060531 70 0.0 0.0 0.00 0.01 0.00 92 1010.4
20260509055531 70 25 0.9 2.6 0.00 0.01 0.00 92 1010.5
20260509054537 70 35 0.9 2.6 0.00 0.01 0.00 92 1010.2
20260509053518 70 148 1.7 3.5 0.00 0.01 0.00 92 1009.7
20260509052543 70 166 3.5 5.2 0.00 0.01 0.00 92 1009.2
20260509051524 70 170 2.6 5.2 0.00 0.01 0.00 92 1010.2
20260509050533 71 0.0 0.0 0.00 0.01 0.00 92 1010.8
20260509045532 71 0.0 0.0 0.00 0.01 0.01 92 1010.7
20260509044532 71 0.0 0.0 0.00 0.01 0.01 92 1010.4
20260509043517 71 0.0 0.0 0.00 0.01 0.01 92 1010.3
20260509042518 71 0.0 0.0 0.00 0.01 0.01 91 1010.1
20260509041538 71 0.0 0.0 0.00 0.01 0.01 91 1010.0
20260509040533 71 0.0 0.0 0.00 0.01 0.01 91 1010.0
20260509035518 71 0.0 0.0 0.00 0.01 0.01 91 1009.8
20260509034518 71 0.0 0.0 0.00 0.01 0.01 91 1009.6
20260509033519 71 0.0 0.0 0.00 0.01 0.01 91 1009.5
20260509032519 71 0.0 0.0 0.00 0.01 0.01 90 1009.6
20260509031519 71 0.0 0.0 0.00 0.01 0.01 90 1009.6
20260509030539 71 135 0.0 0.9 0.00 0.01 0.01 90 1009.4
20260509025519 71 0.0 0.0 0.00 0.01 0.01 89 1009.5
20260509024521 71 0.0 0.0 0.00 0.01 0.01 89 1009.4
20260509023519 71 0.0 0.0 0.00 0.01 0.01 89 1009.1
20260509022520 71 0.0 0.0 0.00 0.01 0.01 88 1009.0
20260509021520 72 0.0 0.0 0.00 0.01 0.01 88 1008.9
20260509020520 72 0.0 0.0 0.00 0.01 0.01 88 1008.6
20260509015522 72 0.0 0.0 0.00 0.01 0.01 87 1008.5
20260509014522 71 0.0 0.0 0.00 0.01 0.01 86 1008.4
20260509013518 72 0.0 0.0 0.00 0.01 0.01 86 1008.3
20260509012539 72 0.0 0.0 0.00 0.01 0.01 84 1008.2
20260509011520 73 124 0.0 1.7 0.00 0.01 0.01 82 1008.0
20260509010518 74 0.0 0.0 0.00 0.01 0.01 80 1007.8
20260509005519 75 0.0 0.0 0.00 0.01 0.01 79 1007.7
20260509004519 75 133 0.9 1.7 0.00 0.01 0.01 78 1007.7
20260509003539 76 146 1.7 2.6 0.00 0.01 0.01 77 1007.7
20260509002521 76 157 0.9 1.7 0.00 0.01 0.01 76 1008.0
20260509001519 77 0.0 0.0 0.00 0.01 0.01 75 1008.1
20260509000516 77 162 1.7 3.5 0.00 0.01 0.01 74 1008.1
20260508235520 77 164 1.7 4.3 0.00 0.01 0.01 73 1008.1
20260508234521 78 176 0.9 2.6 0.00 0.01 0.01 73 1008.2
20260508233520 78 171 2.6 5.2 0.00 0.01 0.01 72 1008.2
20260508232541 80 190 1.7 4.3 0.00 0.01 0.01 71 1008.1
20260508231517 81 160 2.6 6.1 0.00 0.01 0.01 68 1008.1
20260508230519 82 186 1.7 5.2 0.01 0.01 0.01 66 1008.1
20260508225522 80 218 0.0 2.6 0.01 0.01 0.01 69 1008.2
20260508224521 78 167 1.7 5.2 0.01 0.01 0.01 72 1007.9
20260508223518 77 173 2.6 6.1 0.01 0.01 0.01 73 1007.8
20260508222518 74 178 2.6 7.0 0.01 0.01 0.01 79 1007.4
20260508221519 74 147 7.0 11.3 0.01 0.01 0.01 79 1007.2
20260508220519 75 160 3.5 7.0 0.00 0.00 0.00 78 1007.9
20260508215519 76 156 3.5 6.1 0.00 0.00 0.00 75 1009.2
20260508214519 76 326 0.9 3.5 0.00 0.00 0.00 73 1009.8
20260508213519 76 245 0.9 2.6 0.00 0.00 0.00 71 1009.1
20260508212519 77 156 0.9 3.5 0.00 0.00 0.00 72 1009.1
20260508211539 77 157 1.7 4.3 0.00 0.01 0.00 71 1009.3
20260508210538 78 196 2.6 6.1 0.00 0.01 0.00 69 1009.6
20260508205521 79 182 2.6 5.2 0.00 0.01 0.00 68 1009.3
20260508204520 80 180 1.7 4.3 0.00 0.01 0.00 66 1009.3
20260508203520 81 177 2.6 6.1 0.00 0.01 0.00 64 1009.2
20260508202520 82 178 1.7 5.2 0.00 0.01 0.00 62 1009.1
20260508201520 82 199 1.7 5.2 0.00 0.01 0.00 62 1009.3
20260508200517 81 218 1.7 4.3 0.00 0.01 0.00 63 1009.3
20260508195520 80 202 2.6 7.0 0.00 0.01 0.00 64 1009.5
20260508194521 80 186 2.6 5.2 0.00 0.01 0.00 65 1009.7
20260508193520 81 187 3.5 6.1 0.00 0.01 0.00 64 1009.9
20260508192518 80 197 2.6 4.3 0.00 0.01 0.00 64 1009.9
20260508191520 79 182 1.7 5.2 0.00 0.01 0.00 67 1010.1
20260508190519 79 96 1.7 4.3 0.00 0.01 0.00 66 1010.5
20260508185519 79 198 2.6 5.2 0.00 0.01 0.00 65 1010.6
20260508184519 79 158 2.6 7.0 0.00 0.01 0.00 65 1010.6
20260508183520 78 165 3.5 6.1 0.00 0.01 0.00 66 1010.6
20260508182518 78 174 2.6 5.2 0.00 0.01 0.00 65 1010.9
20260508181519 78 139 1.7 4.3 0.00 0.01 0.00 64 1011.1
20260508180519 77 176 2.6 5.2 0.00 0.01 0.00 64 1011.2
20260508175520 77 135 2.6 7.0 0.00 0.01 0.00 65 1011.4
20260508174519 76 146 2.6 6.1 0.00 0.01 0.00 66 1011.5
20260508173519 76 160 3.5 7.8 0.00 0.01 0.00 66 1011.8
20260508172520 75 159 2.6 7.8 0.00 0.01 0.00 67 1012.0
20260508171520 75 186 2.6 5.2 0.00 0.01 0.00 69 1012.3
20260508170517 75 177 2.6 7.0 0.00 0.01 0.00 71 1012.5
20260508165520 74 172 3.5 7.8 0.00 0.01 0.00 71 1012.6
20260508164520 73 168 3.5 8.7 0.00 0.01 0.00 73 1012.6
20260508163522 73 169 3.5 8.7 0.00 0.01 0.00 74 1012.8
20260508162518 72 176 4.3 7.8 0.00 0.01 0.00 75 1013.0
20260508161518 71 173 3.5 7.8 0.00 0.01 0.00 76 1013.2
20260508160519 70 173 4.3 7.8 0.00 0.01 0.00 78 1013.2
20260508155521 70 159 3.5 7.8 0.00 0.01 0.00 79 1013.5
20260508154538 70 159 4.3 7.8 0.00 0.01 0.00 78 1013.7
20260508153519 70 145 3.5 8.7 0.00 0.01 0.00 78 1013.6
20260508152518 70 149 3.5 6.1 0.00 0.01 0.00 79 1013.8
20260508151520 70 167 3.5 7.0 0.00 0.01 0.00 78 1013.8
20260508150539 70 151 3.5 7.8 0.00 0.01 0.00 78 1013.9
20260508145519 70 132 2.6 6.1 0.00 0.01 0.00 77 1013.9
20260508144539 70 123 1.7 4.3 0.00 0.01 0.00 77 1013.9
20260508143519 70 135 1.7 3.5 0.00 0.01 0.00 76 1013.9
20260508142542 71 142 2.6 4.3 0.00 0.01 0.00 75 1014.0
20260508141517 69 126 0.9 3.5 0.00 0.01 0.00 78 1014.0
20260508140519 68 81 0.9 2.6 0.00 0.01 0.00 79 1014.0
20260508135520 66 107 1.7 3.5 0.00 0.01 0.00 84 1014.2